GSAT-10

Last updated on Sat Oct 18 2025 00:02:53 GMT+0000 (Coordinated Universal Time)

1 38779U 12051B 25290.57124979 -.00000175 00000+0 00000+0 0 9997 2 38779 0.0578 265.8547 0004497 223.4523 185.6880 1.00271432 47667
UTC large
Height (km)
Speed (km/s)
/
Latitude / Longitude
Inclination (degrees)
Orbital Period (minutes)
Azimuth
Elevation
Range (km)
Doppler Factor

Next 0 passes for location: London (51.5072 / 0.1276)

Sorry there are no passes over London.